Regional Weather Roundup
Issued by NWS State College, PA

Home | Current Version | Previous Version | Text Only | Print | Product List | Glossary On
Versions: 1 2 3 4 5 6 7 8 9 10 11 12 13 14 15 16 17 18 19 20 21 22 23 24 25 26 27 28 29 30 31 32 33 34 35 36 37 38 39 40 41 42 43 44 45 46 47 48 49 50
000
ASUS41 KCTP 181703
RWRCTP

REGIONAL WEATHER ROUNDUP
NATIONAL WEATHER SERVICE STATE COLLEGE PA
1200 PM EST THU DEC 18 2014

Note: "fair" indicates few or no clouds below 12,000 feet with no
significant weather and/or obstructions to visibility.

* = STATION THAT DOES NOT REPORT PRECIPITATION /E.G. RAIN...SNOW...ETC/
    THUNDER OR FOG.

PAZ002>004-007>009-013>016-020>023-029>032-181800-
WESTERN PENNSYLVANIA

CITY           SKY/WX    TMP DP  RH WIND       PRES   REMARKS
ERIE           CLOUDY    33  25  72 W13       30.14F
MEADVILLE      CLOUDY    29  25  85 W8        30.12F FOG
FRANKLIN*      CLOUDY    27  21  80 W7        30.13S
NEW CASTLE       N/A     28  24  85 SW8       30.18F
BEAVER COUNTY  CLOUDY    28  23  80 W8        30.17F
BUTLER*        CLOUDY    28  21  74 W8        30.17S
PITTSBURGH INT FLURRIES  28  22  78 W10       30.18F
PITTSBURGH     CLOUDY    28  21  75 W12       30.17S FOG
INDIANA*       CLOUDY    28  25  86 W10G16    30.16F
LATROBE        LGT SNOW  28  25  86 SW7       30.19F
WASHINGTON CO* NOT AVBL
$$

PAZ004>006-010>012-017>019-024>028-033>037-041-042-045-046-049>053-181800-
CENTRAL PENNSYLVANIA

CITY           SKY/WX    TMP DP  RH WIND       PRES   REMARKS
BRADFORD       CLOUDY    26  23  88 W13       30.01F FOG     WCI  15
DUBOIS         CLOUDY    26  24  92 W13G21    30.06F FOG     WCI  15
CLEARFIELD     CLOUDY    28  23  81 W10       30.07F
JOHNSTOWN      CLOUDY    24  19  81 W10       30.06F HAZE    WCI  14
ALTOONA        CLOUDY    29  21  72 NW13      30.09F
STATE COLLEGE  CLOUDY    30  25  80 W14       30.07F
WILLIAMSPORT   CLOUDY    36  22  56 W12       30.05F
SELINSGROVE    CLOUDY    36  22  56 W13G18    30.08F
FT INDIANTOWN  CLOUDY    34  24  66 VRB7      30.08F
CAPITAL CITY   CLOUDY    36  23  59 W14       30.10F
HARRISBURG     CLOUDY    36  24  62 W15       30.09F
YORK           CLOUDY    36  22  56 W10       30.11F
$$

PAZ038>040-043-044-047-048-054-055-060>062-067>071-181800-
EASTERN PENNSYLVANIA

CITY           SKY/WX    TMP DP  RH WIND       PRES   REMARKS
SCRANTON       CLOUDY    35  23  61 NW12G23   29.99F
MOUNT POCONO   CLOUDY    31  21  66 NW13G22   29.92F
ALLENTOWN      CLOUDY    39  21  48 W12       30.02F
QUAKERTOWN*    CLOUDY    37  23  56 W9        30.03F
READING        CLOUDY    36  24  62 W14       30.05F
LANCASTER      CLOUDY    35  24  64 W15       30.08F
COATESVILLE    CLOUDY    36  27  69 NW15G22   30.07F
POTTSTOWN      CLOUDY    36  23  59 W9        30.06F
BLUE BELL      CLOUDY    37  27  65 W6        30.04F
DOYLESTOWN     CLOUDY    36  23  59 W7        30.02F
WILLOW GROVE   NOT AVBL
NORTH PHILA    CLOUDY    39  21  48 NW12G23   30.06F
PHILADELPHIA   CLOUDY    38  22  52 W16G24    30.08F
$$



USA.gov is the U.S. government's official web portal to all federal, state and local government web resources and services.